Location: Dennis Manor
(64.8292°N, 147.5397°W)
Time: 08:33:12
(UTC+00:00)

Envisat - Pass Details

Date: 01 November 2020
Orbit: 764 x 766 km, 98.1° (Epoch: 05 December)

Event Time Altitude Azimuth Distance (km) Brightness Sun altitude
Rises 13:49:41 0° 20° (NNE) 3,250 6.8 -24.2°
Reaches altitude 10° 13:53:41 10° 51° (NE) 2,317 6.4 -23.8°
Maximum altitude 13:55:35 12° 73° (ENE) 2,179 6.4 -23.6°
Drops below altitude 10° 13:57:30 10° 95° (E) 2,312 6.4 -23.4°
Sets 14:01:28 0° 127° (SE) 3,232 6.8 -23.0°
